User: anonymous   Login
Location: Montr�al
(45.5000°N, 73.5830°W)
Time: 05:33:46
(UTC-04:00)
Language:

Cosmos 2369 - Orbit

View from above orbital plane
View from above orbital plane
View from above satellite
View from above satellite

Ground track
Ground track

The orbit data is extracted from the following two-line orbital elements,

1 26069U 00006A   14296.78265821  .00000484  00000-0  28355-3 0  3828
2 26069 070.9960 225.5202 0012749 257.5325 130.1836 14.13247720759448
Epoch (UTC): 23 October 2014 18:47:01
Eccentricity: 0.0012749
inclination: 70.9960°
perigee height: 839 km
apogee height: 857 km
right ascension of ascending node: 225.5202°
argument of perigee: 257.5325°
revolutions per day: 14.13247720
mean anomaly at epoch: 130.1836°
orbit number at epoch: 75944

The dashed part of the orbit path shows where the satellite is in the earth's shadow,  

DLR